Year,Month,Day,Hour,Minute,Value (Times are PST for temperature in C)
2009,09,28,00,00,9.60
2009,09,28,00,01,9.60
2009,09,28,00,02,9.60
2009,09,28,00,03,9.60
2009,09,28,00,04,9.60
2009,09,28,00,06,9.50
2009,09,28,00,07,9.50
2009,09,28,00,08,9.50
2009,09,28,00,10,9.50
2009,09,28,00,11,9.50
2009,09,28,00,12,9.50
2009,09,28,00,13,9.50
2009,09,28,00,14,9.50
2009,09,28,00,15,9.50
2009,09,28,00,16,9.40
2009,09,28,00,17,9.40
2009,09,28,00,19,9.40
2009,09,28,00,20,9.40
2009,09,28,00,21,9.30
2009,09,28,00,22,9.30
2009,09,28,00,24,9.30
2009,09,28,00,25,9.30
2009,09,28,00,26,9.20
2009,09,28,00,28,9.20
2009,09,28,00,29,9.20
2009,09,28,00,30,9.20
2009,09,28,00,31,9.20
2009,09,28,00,34,9.10
2009,09,28,00,35,9.10
2009,09,28,00,36,9.10
2009,09,28,00,37,9.10
2009,09,28,00,38,9.00
2009,09,28,00,39,9.00
2009,09,28,00,40,9.00
2009,09,28,00,41,9.00
2009,09,28,00,42,9.00
2009,09,28,00,43,9.00
2009,09,28,00,44,8.90
2009,09,28,00,45,8.90
2009,09,28,00,46,8.90
2009,09,28,00,48,8.90
2009,09,28,00,49,8.90
2009,09,28,00,50,8.90
2009,09,28,00,52,8.90
2009,09,28,00,53,8.80
2009,09,28,00,54,8.80
2009,09,28,00,55,8.80
2009,09,28,00,56,8.80
2009,09,28,00,57,8.80
2009,09,28,00,58,8.80
2009,09,28,00,59,8.80
2009,09,28,01,00,8.80
2009,09,28,01,01,8.80
2009,09,28,01,02,8.80
2009,09,28,01,03,8.80
2009,09,28,01,04,8.80
2009,09,28,01,07,8.80
2009,09,28,01,08,8.80
2009,09,28,01,09,8.90
2009,09,28,01,10,8.90
2009,09,28,01,11,8.90
2009,09,28,01,14,8.90
2009,09,28,01,15,8.90
2009,09,28,01,16,8.80
2009,09,28,01,17,8.80
2009,09,28,01,19,8.80
2009,09,28,01,20,8.70
2009,09,28,01,22,8.70
2009,09,28,01,23,8.70
2009,09,28,01,24,8.70
2009,09,28,01,25,8.70
2009,09,28,01,26,8.70
2009,09,28,01,27,8.70
2009,09,28,01,29,8.70
2009,09,28,01,30,8.70
2009,09,28,01,31,8.70
2009,09,28,01,32,8.70
2009,09,28,01,33,8.70
2009,09,28,01,34,8.70
2009,09,28,01,36,8.70
2009,09,28,01,37,8.70
2009,09,28,01,39,8.70
2009,09,28,01,40,8.70
2009,09,28,01,41,8.80
2009,09,28,01,43,8.80
2009,09,28,01,44,8.80
2009,09,28,01,45,8.80
2009,09,28,01,46,8.80
2009,09,28,01,47,8.70
2009,09,28,01,48,8.70
2009,09,28,01,49,8.70
2009,09,28,01,51,8.80
2009,09,28,01,52,8.80
2009,09,28,01,53,8.80
2009,09,28,01,55,8.80
2009,09,28,01,56,8.80
2009,09,28,01,57,8.80
2009,09,28,01,58,8.80
2009,09,28,02,00,8.80
2009,09,28,02,01,8.80
2009,09,28,02,02,8.80
2009,09,28,02,03,8.80
2009,09,28,02,05,8.70
2009,09,28,02,07,8.80
2009,09,28,02,10,8.80
2009,09,28,02,12,8.80
2009,09,28,02,13,8.80
2009,09,28,02,14,8.80
2009,09,28,02,15,8.80
2009,09,28,02,16,8.80
2009,09,28,02,18,8.80
2009,09,28,02,20,8.80
2009,09,28,02,21,8.90
2009,09,28,02,22,8.90
2009,09,28,02,23,8.90
2009,09,28,02,25,8.90
2009,09,28,02,27,8.90
2009,09,28,02,28,8.90
2009,09,28,02,30,8.90
2009,09,28,02,31,8.90
2009,09,28,02,33,8.90
2009,09,28,02,34,8.90
2009,09,28,02,35,8.90
2009,09,28,02,36,8.90
2009,09,28,02,37,8.90
2009,09,28,02,38,9.00
2009,09,28,02,39,9.00
2009,09,28,02,40,9.00
2009,09,28,02,41,9.00
2009,09,28,02,43,9.00
2009,09,28,02,45,9.00
2009,09,28,02,46,9.00
2009,09,28,02,47,9.00
2009,09,28,02,49,9.10
2009,09,28,02,51,9.00
2009,09,28,02,52,9.10
2009,09,28,02,54,9.10
2009,09,28,02,55,9.10
2009,09,28,02,56,9.10
2009,09,28,02,58,9.10
2009,09,28,02,59,9.10
2009,09,28,03,00,9.10
2009,09,28,03,01,9.10
2009,09,28,03,02,9.10
2009,09,28,03,03,9.10
2009,09,28,03,04,9.10
2009,09,28,03,05,9.10
2009,09,28,03,07,9.10
2009,09,28,03,08,9.10
2009,09,28,03,09,9.10
2009,09,28,03,11,9.00
2009,09,28,03,12,9.00
2009,09,28,03,13,9.00
2009,09,28,03,14,9.00
2009,09,28,03,15,8.90
2009,09,28,03,16,8.90
2009,09,28,03,18,8.90
2009,09,28,03,19,8.90
2009,09,28,03,20,8.90
2009,09,28,03,21,8.80
2009,09,28,03,23,9.00
2009,09,28,03,24,9.10
2009,09,28,03,26,9.20
2009,09,28,03,27,9.20
2009,09,28,03,28,9.20
2009,09,28,03,29,9.20
2009,09,28,03,30,9.20
2009,09,28,03,32,9.20
2009,09,28,03,33,9.20
2009,09,28,03,35,9.20
2009,09,28,03,36,9.20
2009,09,28,03,37,9.20
2009,09,28,03,38,9.20
2009,09,28,03,39,9.20
2009,09,28,03,40,9.20
2009,09,28,03,41,9.20
2009,09,28,03,43,9.20
2009,09,28,03,44,9.20
2009,09,28,03,45,9.20
2009,09,28,03,46,9.20
2009,09,28,03,47,9.20
2009,09,28,03,48,9.20
2009,09,28,03,50,9.20
2009,09,28,03,51,9.10
2009,09,28,03,52,9.10
2009,09,28,03,55,9.00
2009,09,28,03,56,9.00
2009,09,28,03,57,9.00
2009,09,28,03,58,8.90
2009,09,28,03,59,8.90
2009,09,28,04,00,8.90
2009,09,28,04,01,8.80
2009,09,28,04,02,8.80
2009,09,28,04,03,8.70
2009,09,28,04,04,8.70
2009,09,28,04,07,8.70
2009,09,28,04,08,8.70
2009,09,28,04,09,8.70
2009,09,28,04,10,8.70
2009,09,28,04,12,8.70
2009,09,28,04,13,8.70
2009,09,28,04,14,8.60
2009,09,28,04,15,8.60
2009,09,28,04,16,8.60
2009,09,28,04,17,8.50
2009,09,28,04,18,8.40
2009,09,28,04,19,8.40
2009,09,28,04,20,8.20
2009,09,28,04,21,8.20
2009,09,28,04,23,8.20
2009,09,28,04,24,8.20
2009,09,28,04,26,8.10
2009,09,28,04,27,8.10
2009,09,28,04,28,8.10
2009,09,28,04,29,8.00
2009,09,28,04,30,8.00
2009,09,28,04,31,8.00
2009,09,28,04,32,8.00
2009,09,28,04,33,8.00
2009,09,28,04,34,8.00
2009,09,28,04,35,8.00
2009,09,28,04,36,8.00
2009,09,28,04,39,8.10
2009,09,28,04,40,8.10
2009,09,28,04,41,8.20
2009,09,28,04,42,8.20
2009,09,28,04,43,8.20
2009,09,28,04,44,8.20
2009,09,28,04,45,8.20
2009,09,28,04,46,8.20
2009,09,28,04,47,8.20
2009,09,28,04,48,8.20
2009,09,28,04,50,8.30
2009,09,28,04,51,8.30
2009,09,28,04,52,8.30
2009,09,28,04,53,8.40
2009,09,28,04,54,8.40
2009,09,28,04,55,8.50
2009,09,28,04,57,8.50
2009,09,28,04,58,8.50
2009,09,28,04,59,8.60
2009,09,28,05,00,8.60
2009,09,28,05,01,8.60
2009,09,28,05,04,8.60
2009,09,28,05,05,8.60
2009,09,28,05,06,8.60
2009,09,28,05,07,8.60
2009,09,28,05,09,8.60
2009,09,28,05,10,8.60
2009,09,28,05,11,8.60
2009,09,28,05,12,8.70
2009,09,28,05,14,8.70
2009,09,28,05,15,8.70
2009,09,28,05,16,8.70
2009,09,28,05,17,8.70
2009,09,28,05,18,8.70
2009,09,28,05,20,8.70
2009,09,28,05,21,8.70
2009,09,28,05,22,8.70
2009,09,28,05,23,8.70
2009,09,28,05,25,8.70
2009,09,28,05,27,8.70
2009,09,28,05,28,8.70
2009,09,28,05,30,8.70
2009,09,28,05,31,8.60
2009,09,28,05,33,8.60
2009,09,28,05,34,8.60
2009,09,28,05,36,8.60
2009,09,28,05,37,8.70
2009,09,28,05,38,8.80
2009,09,28,05,39,8.90
2009,09,28,05,40,9.20
2009,09,28,05,42,9.40
2009,09,28,05,43,9.70
2009,09,28,05,44,9.80
2009,09,28,05,45,9.90
2009,09,28,05,46,10.10
2009,09,28,05,48,10.20
2009,09,28,05,49,10.30
2009,09,28,05,50,10.30
2009,09,28,05,52,10.50
2009,09,28,05,53,10.60
2009,09,28,05,55,10.40
2009,09,28,05,56,10.40
2009,09,28,05,57,10.40
2009,09,28,05,59,10.40
2009,09,28,06,00,10.60
2009,09,28,06,01,10.80
2009,09,28,06,02,10.80
2009,09,28,06,04,10.80
2009,09,28,06,05,10.70
2009,09,28,06,06,10.60
2009,09,28,06,07,10.60
2009,09,28,06,08,10.60
2009,09,28,06,09,10.60
2009,09,28,06,11,10.60
2009,09,28,06,12,10.60
2009,09,28,06,13,10.60
2009,09,28,06,14,10.60
2009,09,28,06,15,10.60
2009,09,28,06,16,10.50
2009,09,28,06,17,10.40
2009,09,28,06,18,10.40
2009,09,28,06,19,10.10
2009,09,28,06,20,10.10
2009,09,28,06,21,9.80
2009,09,28,06,23,9.30
2009,09,28,06,24,9.20
2009,09,28,06,26,9.10
2009,09,28,06,27,9.00
2009,09,28,06,29,8.90
2009,09,28,06,30,8.90
2009,09,28,06,31,8.90
2009,09,28,06,33,8.80
2009,09,28,06,35,8.70
2009,09,28,06,37,8.60
2009,09,28,06,39,8.60
2009,09,28,06,40,8.50
2009,09,28,06,42,8.50
2009,09,28,06,44,8.60
2009,09,28,06,45,8.60
2009,09,28,06,46,8.70
2009,09,28,06,48,8.70
2009,09,28,06,49,8.70
2009,09,28,06,51,8.70
2009,09,28,06,52,8.70
2009,09,28,06,53,8.70
2009,09,28,06,54,8.80
2009,09,28,06,55,8.80
2009,09,28,06,57,8.80
2009,09,28,06,59,8.90
2009,09,28,07,00,8.90
2009,09,28,07,01,9.00
2009,09,28,07,02,9.00
2009,09,28,07,04,9.00
2009,09,28,07,06,8.80
2009,09,28,07,07,8.70
2009,09,28,07,09,8.40
2009,09,28,07,10,8.30
2009,09,28,07,11,8.30
2009,09,28,07,13,8.20
2009,09,28,07,14,8.20
2009,09,28,07,15,8.20
2009,09,28,07,16,8.20
2009,09,28,07,18,8.30
2009,09,28,07,19,8.30
2009,09,28,07,21,8.30
2009,09,28,07,22,8.40
2009,09,28,07,24,8.40
2009,09,28,07,25,8.40
2009,09,28,07,27,8.50
2009,09,28,07,29,8.50
2009,09,28,07,30,8.50
2009,09,28,07,31,8.60
2009,09,28,07,32,8.60
2009,09,28,07,34,8.70
2009,09,28,07,36,8.70
2009,09,28,07,38,8.70
2009,09,28,07,39,8.70
2009,09,28,07,41,8.80
2009,09,28,07,42,8.80
2009,09,28,07,44,8.80
2009,09,28,07,45,8.90
2009,09,28,07,47,8.90
2009,09,28,07,49,8.90
2009,09,28,07,51,9.00
2009,09,28,07,52,9.10
2009,09,28,07,54,9.20
2009,09,28,07,55,9.20
2009,09,28,07,56,9.20
2009,09,28,07,57,9.30
2009,09,28,07,58,9.30
2009,09,28,07,59,9.40
2009,09,28,08,00,9.40
2009,09,28,08,01,9.50
2009,09,28,08,02,9.60
2009,09,28,08,03,9.60
2009,09,28,08,04,9.70
2009,09,28,08,05,9.70
2009,09,28,08,06,9.70
2009,09,28,08,08,9.70
2009,09,28,08,09,9.70
2009,09,28,08,10,9.70
2009,09,28,08,11,9.70
2009,09,28,08,12,9.80
2009,09,28,08,13,9.90
2009,09,28,08,14,9.90
2009,09,28,08,15,10.10
2009,09,28,08,16,10.10
2009,09,28,08,17,10.10
2009,09,28,08,18,10.10
2009,09,28,08,19,10.10
2009,09,28,08,20,10.10
2009,09,28,08,21,10.20
2009,09,28,08,22,10.20
2009,09,28,08,23,10.20
2009,09,28,08,24,10.20
2009,09,28,08,25,10.20
2009,09,28,08,26,10.20
2009,09,28,08,27,10.20
2009,09,28,08,28,10.20
2009,09,28,08,29,10.20
2009,09,28,08,30,10.10
2009,09,28,08,31,10.20
2009,09,28,08,32,10.20
2009,09,28,08,34,10.30
2009,09,28,08,35,10.30
2009,09,28,08,36,10.30
2009,09,28,08,37,10.30
2009,09,28,08,38,10.40
2009,09,28,08,39,10.40
2009,09,28,08,40,10.40
2009,09,28,08,41,10.60
2009,09,28,08,42,10.60
2009,09,28,08,43,10.60
2009,09,28,08,44,10.70
2009,09,28,08,45,10.70
2009,09,28,08,46,10.80
2009,09,28,08,47,10.90
2009,09,28,08,48,10.90
2009,09,28,08,49,10.90
2009,09,28,08,52,11.20
2009,09,28,08,53,11.20
2009,09,28,08,54,11.30
2009,09,28,08,55,11.30
2009,09,28,08,56,11.30
2009,09,28,08,57,11.40
2009,09,28,08,58,11.40
2009,09,28,08,59,11.60
2009,09,28,09,00,11.60
2009,09,28,09,01,11.70
2009,09,28,09,02,11.80
2009,09,28,09,03,11.80
2009,09,28,09,04,11.80
2009,09,28,09,05,11.80
2009,09,28,09,06,11.90
2009,09,28,09,07,11.90
2009,09,28,09,08,11.90
2009,09,28,09,09,11.90
2009,09,28,09,10,11.90
2009,09,28,09,11,11.90
2009,09,28,09,12,11.90
2009,09,28,09,13,12.00
2009,09,28,09,14,12.00
2009,09,28,09,15,12.00
2009,09,28,09,16,12.00
2009,09,28,09,17,12.10
2009,09,28,09,18,12.10
2009,09,28,09,19,12.10
2009,09,28,09,20,12.10
2009,09,28,09,21,12.20
2009,09,28,09,22,12.10
2009,09,28,09,24,12.10
2009,09,28,09,25,12.10
2009,09,28,09,27,12.00
2009,09,28,09,28,12.00
2009,09,28,09,29,11.90
2009,09,28,09,30,11.90
2009,09,28,09,31,11.90
2009,09,28,09,33,11.80
2009,09,28,09,34,11.90
2009,09,28,09,35,11.90
2009,09,28,09,36,11.90
2009,09,28,09,39,12.00
2009,09,28,09,40,12.00
2009,09,28,09,41,12.00
2009,09,28,09,42,12.10
2009,09,28,09,43,12.10
2009,09,28,09,44,12.20
2009,09,28,09,45,12.20
2009,09,28,09,46,12.30
2009,09,28,09,47,12.30
2009,09,28,09,48,12.30
2009,09,28,09,49,12.40
2009,09,28,09,50,12.50
2009,09,28,09,51,12.50
2009,09,28,09,52,12.50
2009,09,28,09,53,12.50
2009,09,28,09,54,12.50
2009,09,28,09,55,12.60
2009,09,28,09,56,12.60
2009,09,28,09,57,12.60
2009,09,28,09,58,12.70
2009,09,28,09,59,12.70
2009,09,28,10,00,12.60
2009,09,28,10,01,12.70
2009,09,28,10,02,12.70
2009,09,28,10,03,12.70
2009,09,28,10,04,12.70
2009,09,28,10,05,12.70
2009,09,28,10,06,12.70
2009,09,28,10,07,12.80
2009,09,28,10,08,12.80
2009,09,28,10,09,12.80
2009,09,28,10,10,12.80
2009,09,28,10,11,12.80
2009,09,28,10,12,12.80
2009,09,28,10,13,12.90
2009,09,28,10,14,12.90
2009,09,28,10,15,12.90
2009,09,28,10,16,13.00
2009,09,28,10,17,13.00
2009,09,28,10,18,13.00
2009,09,28,10,19,13.00
2009,09,28,10,20,13.10
2009,09,28,10,21,13.10
2009,09,28,10,22,13.20
2009,09,28,10,23,13.30
2009,09,28,10,24,13.30
2009,09,28,10,25,13.30
2009,09,28,10,26,13.30
2009,09,28,10,27,13.40
2009,09,28,10,28,13.50
2009,09,28,10,30,13.70
2009,09,28,10,31,13.80
2009,09,28,10,32,13.80
2009,09,28,10,33,13.80
2009,09,28,10,34,13.80
2009,09,28,10,35,13.80
2009,09,28,10,36,13.80
2009,09,28,10,37,13.70
2009,09,28,10,38,13.70
2009,09,28,10,39,13.70
2009,09,28,10,40,13.80
2009,09,28,10,41,13.90
2009,09,28,10,42,13.90
2009,09,28,10,43,14.00
2009,09,28,10,44,14.10
2009,09,28,10,45,14.20
2009,09,28,10,46,14.20
2009,09,28,10,47,14.40
2009,09,28,10,48,14.50
2009,09,28,10,50,14.90
2009,09,28,10,52,15.20
2009,09,28,10,53,15.30
2009,09,28,10,54,15.30
2009,09,28,10,55,15.40
2009,09,28,10,56,15.50
2009,09,28,10,57,15.50
2009,09,28,10,58,15.50
2009,09,28,10,59,15.50
2009,09,28,11,00,15.50
2009,09,28,11,01,15.50
2009,09,28,11,02,15.60
2009,09,28,11,03,15.60
2009,09,28,11,05,15.80
2009,09,28,11,06,15.80
2009,09,28,11,07,16.10
2009,09,28,11,09,16.10
2009,09,28,11,10,16.10
2009,09,28,11,11,15.90
2009,09,28,11,13,15.80
2009,09,28,11,14,15.70
2009,09,28,11,15,15.60
2009,09,28,11,16,15.60
2009,09,28,11,17,15.50
2009,09,28,11,18,15.50
2009,09,28,11,19,15.50
2009,09,28,11,20,15.60
2009,09,28,11,21,15.60
2009,09,28,11,22,15.60
2009,09,28,11,23,15.50
2009,09,28,11,24,15.60
2009,09,28,11,26,15.60
2009,09,28,11,27,15.60
2009,09,28,11,28,15.60
2009,09,28,11,29,15.60
2009,09,28,11,30,15.60
2009,09,28,11,31,15.60
2009,09,28,11,32,15.70
2009,09,28,11,33,15.60
2009,09,28,11,34,15.60
2009,09,28,11,35,15.60
2009,09,28,11,36,15.60
2009,09,28,11,37,15.60
2009,09,28,11,38,15.60
2009,09,28,11,39,15.50
2009,09,28,11,40,15.50
2009,09,28,11,41,15.50
2009,09,28,11,42,15.50
2009,09,28,11,44,15.70
2009,09,28,11,45,15.80
2009,09,28,11,47,15.70
2009,09,28,11,48,15.60
2009,09,28,11,49,15.60
2009,09,28,11,50,15.50
2009,09,28,11,51,15.40
2009,09,28,11,52,15.40
2009,09,28,11,53,15.50
2009,09,28,11,54,15.40
2009,09,28,11,56,15.40
2009,09,28,11,58,15.50
2009,09,28,12,00,15.60
2009,09,28,12,01,15.70
2009,09,28,12,02,15.70
2009,09,28,12,04,15.60
2009,09,28,12,05,15.50
2009,09,28,12,07,15.40
2009,09,28,12,08,15.40
2009,09,28,12,09,15.50
2009,09,28,12,10,15.50
2009,09,28,12,12,15.60
2009,09,28,12,13,15.60
2009,09,28,12,14,15.60
2009,09,28,12,15,15.50
2009,09,28,12,17,15.50
2009,09,28,12,18,15.50
2009,09,28,12,19,15.70
2009,09,28,12,20,15.80
2009,09,28,12,22,15.80
2009,09,28,12,23,15.70
2009,09,28,12,24,15.70
2009,09,28,12,25,15.80
2009,09,28,12,27,15.80
2009,09,28,12,28,15.80
2009,09,28,12,29,15.80
2009,09,28,12,30,15.80
2009,09,28,12,32,15.90
2009,09,28,12,33,16.10
2009,09,28,12,34,16.10
2009,09,28,12,35,16.10
2009,09,28,12,37,16.10
2009,09,28,12,38,16.20
2009,09,28,12,40,16.20
2009,09,28,12,41,16.20
2009,09,28,12,43,16.30
2009,09,28,12,44,16.30
2009,09,28,12,45,16.30
2009,09,28,12,46,16.30
2009,09,28,12,48,16.30
2009,09,28,12,49,16.30
2009,09,28,12,51,16.30
2009,09,28,12,52,16.40
2009,09,28,12,54,16.40
2009,09,28,12,55,16.40
2009,09,28,12,56,16.40
2009,09,28,12,57,16.30
2009,09,28,12,58,16.20
2009,09,28,12,59,16.20
2009,09,28,13,00,16.30
2009,09,28,13,01,16.30
2009,09,28,13,02,16.30
2009,09,28,13,04,16.20
2009,09,28,13,05,16.20
2009,09,28,13,06,16.10
2009,09,28,13,07,16.10
2009,09,28,13,09,16.10
2009,09,28,13,10,16.10
2009,09,28,13,12,16.10
2009,09,28,13,13,16.10
2009,09,28,13,14,16.10
2009,09,28,13,15,16.10
2009,09,28,13,16,16.10
2009,09,28,13,18,16.10
2009,09,28,13,19,16.10
2009,09,28,13,20,16.10
2009,09,28,13,21,16.10
2009,09,28,13,22,16.10
2009,09,28,13,24,16.00
2009,09,28,13,25,16.10
2009,09,28,13,26,16.10
2009,09,28,13,27,16.10
2009,09,28,13,28,16.10
2009,09,28,13,29,16.10
2009,09,28,13,30,16.10
2009,09,28,13,31,16.10
2009,09,28,13,32,16.10
2009,09,28,13,33,16.10
2009,09,28,13,34,15.90
2009,09,28,13,36,15.90
2009,09,28,13,37,15.80
2009,09,28,13,38,15.80
2009,09,28,13,39,15.80
2009,09,28,13,40,15.80
2009,09,28,13,41,15.80
2009,09,28,13,42,15.80
2009,09,28,13,43,15.80
2009,09,28,13,44,15.80
2009,09,28,13,45,15.80
2009,09,28,13,46,15.80
2009,09,28,13,47,15.80
2009,09,28,13,48,15.80
2009,09,28,13,49,15.80
2009,09,28,13,50,15.80
2009,09,28,13,51,15.80
2009,09,28,13,52,15.80
2009,09,28,13,53,15.80
2009,09,28,13,54,15.80
2009,09,28,13,55,15.80
2009,09,28,13,58,15.80
2009,09,28,13,59,15.80
2009,09,28,14,00,15.80
2009,09,28,14,01,15.80
2009,09,28,14,02,15.80
2009,09,28,14,04,15.80
2009,09,28,14,05,15.80
2009,09,28,14,06,15.80
2009,09,28,14,08,15.80
2009,09,28,14,09,15.80
2009,09,28,14,10,15.80
2009,09,28,14,11,15.80
2009,09,28,14,12,15.80
2009,09,28,14,13,15.80
2009,09,28,14,14,15.80
2009,09,28,14,15,15.90
2009,09,28,14,16,15.90
2009,09,28,14,17,15.90
2009,09,28,14,18,15.90
2009,09,28,14,19,15.90
2009,09,28,14,20,16.10
2009,09,28,14,21,16.10
2009,09,28,14,22,16.10
2009,09,28,14,23,15.90
2009,09,28,14,24,15.90
2009,09,28,14,25,15.80
2009,09,28,14,26,15.80
2009,09,28,14,27,15.70
2009,09,28,14,28,15.50
2009,09,28,14,29,15.30
2009,09,28,14,30,15.20
2009,09,28,14,31,14.90
2009,09,28,14,32,14.70
2009,09,28,14,33,14.60
2009,09,28,14,34,14.50
2009,09,28,14,35,14.30
2009,09,28,14,36,14.20
2009,09,28,14,37,14.20
2009,09,28,14,38,14.20
2009,09,28,14,39,14.10
2009,09,28,14,40,14.00
2009,09,28,14,42,14.00
2009,09,28,14,43,14.10
2009,09,28,14,44,14.10
2009,09,28,14,45,14.20
2009,09,28,14,46,14.20
2009,09,28,14,47,14.30
2009,09,28,14,48,14.40
2009,09,28,14,49,14.40
2009,09,28,14,50,14.50
2009,09,28,14,51,14.50
2009,09,28,14,52,14.60
2009,09,28,14,53,14.70
2009,09,28,14,54,14.70
2009,09,28,14,55,14.80
2009,09,28,14,57,14.80
2009,09,28,14,58,14.80
2009,09,28,14,59,14.80
2009,09,28,15,00,14.80
2009,09,28,15,01,14.80
2009,09,28,15,03,14.80
2009,09,28,15,04,14.70
2009,09,28,15,05,14.70
2009,09,28,15,06,14.60
2009,09,28,15,07,14.60
2009,09,28,15,08,14.50
2009,09,28,15,09,14.40
2009,09,28,15,10,14.20
2009,09,28,15,11,14.20
2009,09,28,15,12,14.20
2009,09,28,15,13,14.00
2009,09,28,15,14,14.00
2009,09,28,15,15,13.90
2009,09,28,15,17,13.80
2009,09,28,15,18,13.80
2009,09,28,15,19,13.70
2009,09,28,15,20,13.70
2009,09,28,15,21,13.70
2009,09,28,15,22,13.70
2009,09,28,15,23,13.60
2009,09,28,15,24,13.60
2009,09,28,15,25,13.60
2009,09,28,15,26,13.50
2009,09,28,15,27,13.50
2009,09,28,15,28,13.50
2009,09,28,15,29,13.50
2009,09,28,15,30,13.40
2009,09,28,15,31,13.40
2009,09,28,15,32,13.30
2009,09,28,15,33,13.30
2009,09,28,15,34,13.30
2009,09,28,15,35,13.30
2009,09,28,15,36,13.20
2009,09,28,15,37,13.10
2009,09,28,15,38,13.10
2009,09,28,15,39,13.00
2009,09,28,15,40,12.90
2009,09,28,15,41,12.90
2009,09,28,15,42,12.80
2009,09,28,15,43,12.80
2009,09,28,15,44,12.80
2009,09,28,15,45,12.80
2009,09,28,15,46,12.80
2009,09,28,15,47,12.80
2009,09,28,15,48,12.80
2009,09,28,15,49,12.70
2009,09,28,15,50,12.60
2009,09,28,15,51,12.60
2009,09,28,15,52,12.50
2009,09,28,15,53,12.60
2009,09,28,15,54,12.60
2009,09,28,15,55,12.60
2009,09,28,15,56,12.60
2009,09,28,15,57,12.50
2009,09,28,15,58,12.50
2009,09,28,15,59,12.50
2009,09,28,16,00,12.50
2009,09,28,16,01,12.40
2009,09,28,16,02,12.40
2009,09,28,16,03,12.40
2009,09,28,16,04,12.30
2009,09,28,16,05,12.30
2009,09,28,16,06,12.30
2009,09,28,16,07,12.20
2009,09,28,16,08,12.20
2009,09,28,16,09,12.10
2009,09,28,16,10,12.10
2009,09,28,16,11,12.10
2009,09,28,16,12,12.00
2009,09,28,16,13,12.00
2009,09,28,16,14,12.00
2009,09,28,16,15,12.00
2009,09,28,16,16,12.00
2009,09,28,16,17,11.90
2009,09,28,16,18,11.90
2009,09,28,16,19,11.90
2009,09,28,16,20,11.90
2009,09,28,16,21,11.90
2009,09,28,16,22,11.90
2009,09,28,16,23,11.90
2009,09,28,16,24,11.90
2009,09,28,16,25,11.90
2009,09,28,16,26,11.90
2009,09,28,16,27,11.80
2009,09,28,16,28,11.80
2009,09,28,16,29,11.80
2009,09,28,16,30,11.80
2009,09,28,16,31,11.70
2009,09,28,16,32,11.70
2009,09,28,16,33,11.70
2009,09,28,16,34,11.60
2009,09,28,16,35,11.60
2009,09,28,16,36,11.60
2009,09,28,16,37,11.60
2009,09,28,16,38,11.60
2009,09,28,16,39,11.60
2009,09,28,16,42,11.60
2009,09,28,16,43,11.60
2009,09,28,16,44,11.60
2009,09,28,16,45,11.40
2009,09,28,16,46,11.40
2009,09,28,16,48,11.40
2009,09,28,16,49,11.40
2009,09,28,16,50,11.40
2009,09,28,16,51,11.40
2009,09,28,16,52,11.40
2009,09,28,16,53,11.40
2009,09,28,16,54,11.40
2009,09,28,16,55,11.40
2009,09,28,16,56,11.30
2009,09,28,16,57,11.30
2009,09,28,16,58,11.30
2009,09,28,17,00,11.20
2009,09,28,17,01,11.20
2009,09,28,17,02,11.10
2009,09,28,17,03,11.10
2009,09,28,17,04,11.10
2009,09,28,17,06,11.10
2009,09,28,17,08,11.10
2009,09,28,17,10,10.90
2009,09,28,17,12,10.90
2009,09,28,17,14,10.90
2009,09,28,17,15,10.80
2009,09,28,17,16,10.80
2009,09,28,17,18,10.80
2009,09,28,17,20,10.80
2009,09,28,17,22,10.80
2009,09,28,17,24,10.90
2009,09,28,17,26,10.80
2009,09,28,17,28,10.80
2009,09,28,17,30,10.80
2009,09,28,17,32,10.80
2009,09,28,17,34,10.80
2009,09,28,17,36,10.70
2009,09,28,17,38,10.80
2009,09,28,17,40,10.70
2009,09,28,17,42,10.70
2009,09,28,17,43,10.70
2009,09,28,17,45,10.70
2009,09,28,17,46,10.80
2009,09,28,17,48,10.70
2009,09,28,17,49,10.70
2009,09,28,17,51,10.70
2009,09,28,17,53,10.70
2009,09,28,17,55,10.70
2009,09,28,17,57,10.60
2009,09,28,17,58,10.60
2009,09,28,18,00,10.60
2009,09,28,18,01,10.60
2009,09,28,18,02,10.60
2009,09,28,18,05,10.60
2009,09,28,18,06,10.60
2009,09,28,18,09,10.60
2009,09,28,18,10,10.60
2009,09,28,18,12,10.60
2009,09,28,18,13,10.60
2009,09,28,18,14,10.60
2009,09,28,18,15,10.60
2009,09,28,18,16,10.60
2009,09,28,18,18,10.60
2009,09,28,18,20,10.60
2009,09,28,18,21,10.60
2009,09,28,18,22,10.60
2009,09,28,18,23,10.60
2009,09,28,18,25,10.60
2009,09,28,18,26,10.60
2009,09,28,18,27,10.60
2009,09,28,18,28,10.60
2009,09,28,18,29,10.60
2009,09,28,18,30,10.50
2009,09,28,18,31,10.40
2009,09,28,18,32,10.40
2009,09,28,18,33,10.40
2009,09,28,18,34,10.40
2009,09,28,18,36,10.40
2009,09,28,18,37,10.40
2009,09,28,18,38,10.40
2009,09,28,18,40,10.40
2009,09,28,18,41,10.40
2009,09,28,18,43,10.40
2009,09,28,18,45,10.40
2009,09,28,18,47,10.40
2009,09,28,18,48,10.40
2009,09,28,18,49,10.40
2009,09,28,18,50,10.40
2009,09,28,18,51,10.40
2009,09,28,18,52,10.40
2009,09,28,18,53,10.40
2009,09,28,18,54,10.40
2009,09,28,18,55,10.40
2009,09,28,18,57,10.40
2009,09,28,18,58,10.40
2009,09,28,18,59,10.40
2009,09,28,19,00,10.40
2009,09,28,19,01,10.40
2009,09,28,19,02,10.40
2009,09,28,19,03,10.40
2009,09,28,19,04,10.40
2009,09,28,19,06,10.40
2009,09,28,19,07,10.40
2009,09,28,19,10,10.40
2009,09,28,19,12,10.40
2009,09,28,19,13,10.40
2009,09,28,19,14,10.40
2009,09,28,19,15,10.40
2009,09,28,19,16,10.40
2009,09,28,19,19,10.40
2009,09,28,19,20,10.30
2009,09,28,19,21,10.30
2009,09,28,19,22,10.40
2009,09,28,19,24,10.40
2009,09,28,19,25,10.40
2009,09,28,19,27,10.40
2009,09,28,19,28,10.40
2009,09,28,19,29,10.40
2009,09,28,19,30,10.40
2009,09,28,19,31,10.40
2009,09,28,19,32,10.40
2009,09,28,19,34,10.40
2009,09,28,19,35,10.40
2009,09,28,19,37,10.40
2009,09,28,19,38,10.40
2009,09,28,19,39,10.40
2009,09,28,19,40,10.40
2009,09,28,19,41,10.60
2009,09,28,19,42,10.60
2009,09,28,19,43,10.60
2009,09,28,19,44,10.60
2009,09,28,19,45,10.60
2009,09,28,19,46,10.60
2009,09,28,19,47,10.60
2009,09,28,19,49,10.60
2009,09,28,19,50,10.60
2009,09,28,19,51,10.60
2009,09,28,19,52,10.60
2009,09,28,19,53,10.60
2009,09,28,19,54,10.40
2009,09,28,19,55,10.40
2009,09,28,19,56,10.40
2009,09,28,19,57,10.40
2009,09,28,19,58,10.40
2009,09,28,19,59,10.40
2009,09,28,20,00,10.40
2009,09,28,20,01,10.40
2009,09,28,20,02,10.40
2009,09,28,20,03,10.40
2009,09,28,20,04,10.40
2009,09,28,20,05,10.40
2009,09,28,20,06,10.40
2009,09,28,20,07,10.40
2009,09,28,20,08,10.40
2009,09,28,20,09,10.40
2009,09,28,20,11,10.60
2009,09,28,20,12,10.60
2009,09,28,20,13,10.60
2009,09,28,20,14,10.60
2009,09,28,20,15,10.60
2009,09,28,20,16,10.60
2009,09,28,20,17,10.60
2009,09,28,20,18,10.60
2009,09,28,20,20,10.60
2009,09,28,20,21,10.60
2009,09,28,20,24,10.60
2009,09,28,20,25,10.60
2009,09,28,20,27,10.60
2009,09,28,20,28,10.60
2009,09,28,20,29,10.60
2009,09,28,20,30,10.60
2009,09,28,20,31,10.40
2009,09,28,20,32,10.40
2009,09,28,20,33,10.40
2009,09,28,20,34,10.40
2009,09,28,20,35,10.40
2009,09,28,20,36,10.40
2009,09,28,20,37,10.40
2009,09,28,20,38,10.40
2009,09,28,20,39,10.40
2009,09,28,20,40,10.40
2009,09,28,20,41,10.40
2009,09,28,20,42,10.40
2009,09,28,20,43,10.40
2009,09,28,20,45,10.40
2009,09,28,20,46,10.40
2009,09,28,20,47,10.40
2009,09,28,20,48,10.40
2009,09,28,20,49,10.40
2009,09,28,20,51,10.40
2009,09,28,20,52,10.40
2009,09,28,20,53,10.40
2009,09,28,20,54,10.40
2009,09,28,20,55,10.40
2009,09,28,20,56,10.40
2009,09,28,20,57,10.40
2009,09,28,20,58,10.30
2009,09,28,20,59,10.30
2009,09,28,21,00,10.30
2009,09,28,21,01,10.30
2009,09,28,21,04,10.30
2009,09,28,21,05,10.40
2009,09,28,21,06,10.40
2009,09,28,21,07,10.40
2009,09,28,21,08,10.40
2009,09,28,21,09,10.40
2009,09,28,21,10,10.60
2009,09,28,21,12,10.60
2009,09,28,21,13,10.60
2009,09,28,21,14,10.60